Location: Lafig�re
(44.4503°N, 4.0357°E)
Time: 14:14:11
(UTC+00:00)

Vanguard 2 Rocket - Pass Details

Date: 02 February 2021
Orbit: 554 x 3325 km, 32.9° (Epoch: 06 March)

Event Time Altitude Azimuth Distance (km) Brightness Sun altitude
Rises 08:42:29 0° 187° (S) 6,961 11.9 14.4°
Reaches altitude 10° 08:49:38 10° 171° (S) 6,192 12.1 15.4°
Maximum altitude 09:00:42 18° 137° (SE) 5,587 15.3 16.8°
Drops below altitude 10° 09:11:14 10° 103° (ESE) 5,936 12.1 18.1°
Sets 09:17:39 0° 87° (E) 6,585 11.8 18.8°
